Weather in Babino

Russia / Smolensk Oblast     55°09′53″N   32°23′05″E
temp.,
°C
wind,
m/s
gust,
m/s
humid.,
%
clouds,
%
prec.,
mm/h
press.,
hPa
HPBL,
m
26 october, tue
tue2600:00+1sw41482100 0.0 1027430
03:00+1sw41479100 0.0 1026412
06:00+1sw41380100 0.0 1024363
09:00+2sw41474100 0.0 1023446
12:00+5sw51461100 0.0 1022553
15:00+6sw51357100 0.0 1020677
18:00+5sw51364100 0.0 1020557
21:00+4sw51466100 0.0 1019538
27 october, wed
wed2700:00+4sw41371100 0.0 1018471
03:00+3ssw41273100 0.0 1016421
06:00+3sw41275100 0.0 1015406
09:00+3sw51282100 0.1 1014526
12:00+5wsw41294100 0.6 1015652
15:00+7w4986100 0.7 10161063
18:00+6w3978100 0.1 1017566
21:00+6sw3118788 0.1 1016375
28 october, thu
thu2800:00+5sw41293100 0.0 1015391
03:00+7sw51495100 2.1 1012718
06:00+8wsw51496100 2.4 1011790
09:00+9w51396100 2.9 1011823
12:00+10wnw5118632 0.1 1013857
15:00+10nw61077100 0.3 10151243
18:00+8nw41085100 0.0 1019779
21:00+7nnw3883100 0.1 1022403
29 october, fri
fri2900:00+6n259398 0.0 1024206
03:00+6ese239085 0.0 1026141
06:00+4s22948 0.0 102744
09:00+4s26936 0.0 1029156
12:00+8ssw358113 0.0 1029459
15:00+9ssw36735 0.0 1028511
18:00+6ssw278813 0.0 1029146
21:00+5ssw3891100 0.0 1029177
30 october, sat
sat3000:00+5ssw3109324 0.0 1029215
03:00+4ssw299413 0.0 1030222
06:00+3ssw3109549 0.0 1029236
09:00+4s3119431 0.0 1030277
12:00+8ssw410765 0.0 1029419
15:00+9s411725 0.0 1028574
18:00+7s4128721 0.0 1027411
21:00+6ssw4149171 0.0 1027430